[[{"header":{"parameterUnit":"m.s-1","parameterCategory":1,"la1":30.2991,"la2":30.254,"lo1":-89.0895,"lo2":-89.0444,"dy":0.0017,"dx":0.0017,"nx":28,"ny":28,"refTime":"2025-01-22T09:00:00:Z","depth":0,"parameterNumber":2,"parameterNumberName":"U-component_of_WINDS"},"data":[0,0,0,0,0,0,0,0,0,0,0,0,0,0,0,0,0,0,0,0,0,0,0,0,0,0,0,0,0,0,0,0,0,0,0,0,0,0,0,0,0,0,0,0,0,0,0,0,0,0,0,0,0,0,0,0,0,0,-1.6096,-1.6097,0,-1.6213,-1.6214,-1.6216,-1.6123,-1.6119,-1.6115,-1.6111,-1.6233,-1.624,-1.6247,0,0,0,0,0,0,0,0,0,0,0,0,0,-1.5791,-1.5797,-1.6096,-1.6097,-1.6099,-1.6213,-1.6214,-1.6216,-1.6124,-1.6119,-1.6114,-1.611,-1.6231,-1.6239,-1.6247,0,0,0,0,0,0,0,0,0,0,0,0,0,-1.5917,-1.5799,-1.6095,-1.6066,-1.6065,-1.6213,-1.6215,-1.6216,-1.6125,-1.6119,-1.6113,-1.6107,-1.6228,-1.6238,-1.6248,-1.6431,0,0,-1.628,-1.6285,0,0,0,0,0,0,0,0,-1.591,-1.5929,-1.6069,-1.6068,-1.6067,-1.6147,-1.6151,-1.6289,-1.6126,-1.6102,-1.6111,-1.6104,-1.6209,-1.6221,-1.6256,-1.6437,-1.6442,-1.6281,-1.6287,-1.6292,-1.6295,0,0,0,0,0,0,0,-1.5902,-1.5923,-1.6142,-1.6071,-1.607,-1.6047,-1.6058,-1.6177,-1.6188,-1.6104,-1.6097,-1.6112,-1.6208,-1.6246,-1.6258,-1.6444,-1.6281,-1.629,-1.6296,-1.63,-1.678,-1.6786,0,0,0,0,0,0,-1.5896,-1.5916,-1.6138,-1.6146,-1.5972,-1.6057,-1.607,-1.6128,-1.6186,-1.6189,-1.6117,-1.6108,-1.6231,-1.6246,-1.6262,-1.6481,-1.6292,-1.6301,-1.6307,-1.6774,-1.6781,-1.6788,0,0,0,0,0,0,-1.589,-1.5916,-1.6134,-1.6029,-1.6055,-1.6069,-1.6134,-1.6133,-1.6172,-1.6196,-1.6198,-1.6155,-1.6227,-1.6247,-1.639,-1.6483,-1.6306,-1.6316,-1.6766,-1.6776,-1.6785,-1.6919,0,0,0,0,0,0,-1.5881,-1.5915,-1.5985,-1.6032,-1.6061,-1.626,-1.614,-1.614,-1.619,-1.6178,-1.6232,-1.6235,-1.6224,-1.6375,-1.64,-1.6495,-1.6324,-1.6758,-1.677,-1.6782,-1.6906,-1.6932,-1.6954,0,0,0,0,0,-1.5871,-1.6018,-1.5989,-1.6016,-1.6149,-1.6266,-1.6283,-1.6267,-1.6197,-1.6268,-1.6283,-1.6234,-1.6468,-1.639,-1.6418,-1.6517,-1.6752,-1.6767,-1.6781,-1.6896,-1.6927,-1.6954,0,0,0,0,0,0,-1.5984,-1.6024,-1.5992,-1.6159,-1.621,-1.625,-1.6339,-1.63,-1.6372,-1.6358,-1.6335,-1.6348,-1.6498,-1.6521,-1.6433,-1.6696,-1.6599,-1.662,-1.6677,-1.6707,-1.673,-1.6723,-1.6332,0,0,0,0,0,-1.6028,-1.6119,-1.6149,-1.6294,-1.6321,-1.6325,-1.6376,-1.6358,-1.641,-1.6431,-1.6457,-1.6509,-1.6594,-1.6651,-1.6731,-1.6908,-1.6918,-1.6989,-1.7013,-1.7033,-1.7052,-1.7147,-1.7179,-1.6837,-1.6836,-1.6836,0,0,-1.6121,-1.6154,-1.6213,-1.6317,-1.6354,-1.645,-1.6344,-1.6449,-1.652,-1.6447,-1.6583,-1.6604,-1.666,-1.682,-1.6892,-1.6844,-1.7148,-1.7051,-1.7067,-1.7076,-1.7165,-1.7198,-1.7227,-1.6846,-1.6845,-1.6843,0,0,-1.6339,-1.6372,-1.6497,-1.6535,-1.6592,-1.6594,-1.6624,-1.6669,-1.668,-1.6816,-1.6763,-1.6846,-1.6993,-1.7035,-1.7076,-1.7307,-1.7264,-1.7333,-1.746,-1.7553,-1.758,-1.7603,-1.7687,-1.7717,-1.7352,-1.7352,-1.7352,0,-1.6447,-1.6588,-1.6566,-1.6675,-1.6722,-1.6659,-1.6784,-1.6823,-1.6904,-1.6938,-1.6882,-1.7065,-1.7098,-1.7267,-1.7324,-1.7358,-1.7392,-1.7329,-1.7577,-1.7601,-1.7623,-1.7702,-1.7734,-1.736,-1.7359,-1.7359,-1.7358,0,-1.6719,-1.6818,-1.6911,-1.699,-1.7047,-1.7164,-1.7159,-1.7219,-1.7196,-1.7203,-1.7342,-1.7379,-1.7465,-1.7503,-1.7482,-1.7669,-1.7638,-1.758,-1.7482,-1.7664,-1.7738,-1.7768,-1.7372,-1.7369,-1.7367,-1.7365,0,0,-1.7015,-1.7078,-1.7113,-1.7147,-1.7204,-1.728,-1.7392,-1.7476,-1.7529,-1.7585,-1.768,-1.7804,-1.7751,-1.7797,-1.778,-1.7861,-1.8042,-1.7793,-1.7794,-1.7839,-1.8251,-1.8296,-1.8331,-1.8012,-1.8018,-1.8022,-1.8247,0,-1.7237,-1.7435,-1.7416,-1.7603,-1.7694,-1.7634,-1.7732,-1.7777,-1.7786,-1.7864,-1.7873,-1.7963,-1.7885,-1.7912,-1.799,-1.8004,-1.8125,-1.7987,-1.8101,-1.8105,-1.8091,-1.837,-1.8418,-1.8628,-1.8275,-1.828,-1.8284,0,-1.7523,-1.7589,-1.7786,-1.7827,-1.7865,-1.7954,-1.8028,-1.8103,-1.8152,-1.8152,-1.8203,-1.8171,-1.8284,-1.8181,-1.8337,-1.8243,-1.8288,-1.8302,-1.8309,-1.8322,-1.8207,-1.8391,-1.8694,-1.8727,-1.8329,-1.8325,-1.8322,0,-1.7722,-1.7859,-1.7994,-1.8025,-1.8077,-1.8141,-1.8165,-1.8208,-1.8259,-1.8324,-1.8356,-1.8433,-1.8476,-1.8535,-1.8525,-1.8451,-1.8684,-1.858,-1.8688,-1.8688,-1.8742,-1.874,-1.9059,-1.8768,-1.8767,-1.8767,-1.8766,0,-1.7973,-1.8096,-1.8084,-1.8167,-1.8303,-1.8279,-1.8414,-1.843,-1.8469,-1.8554,-1.8505,-1.8586,-1.8566,-1.8646,-1.8637,-1.8768,-1.8787,-1.8791,-1.8788,-1.8797,-1.8797,-1.8828,-1.8814,-1.8775,-1.8773,-1.8771,-1.877,0,-1.8219,-1.8215,-1.8359,-1.8395,-1.8407,-1.8505,-1.8536,-1.8614,-1.8618,-1.8726,-1.875,-1.8756,-1.8848,-1.8842,-1.8945,-1.8939,-1.91,-1.9079,-1.9084,-1.9081,-1.9189,-1.918,-1.9542,-1.9589,-1.9266,-1.9269,-1.9271,0,-1.838,-1.8473,-1.8519,-1.8572,-1.8601,-1.8688,-1.8739,-1.8718,-1.8773,-1.8835,-1.8906,-1.8993,-1.9061,-1.921,-1.9224,-1.9302,-1.9283,-1.9404,-1.9295,-1.93,-1.9286,-1.9282,-1.9291,-1.9427,-1.9431,-1.9434,-1.9436,0,-1.8668,-1.8661,-1.8737,-1.8812,-1.8875,-1.8933,-1.8986,-1.9032,-1.9016,-1.9081,-1.9173,-1.9226,-1.9331,-1.9418,-1.9492,-1.9516,-1.9475,-1.947,-1.9499,-1.9511,-1.951,-1.9513,-1.9145,-1.9462,-1.946,-1.9458,-1.9456,-1.9455,-1.8878,-1.8958,-1.9002,-1.9088,-1.9125,-1.9175,-1.925,-1.9262,-1.9339,-1.9423,-1.9405,-1.9509,-1.9554,-1.9649,-1.968,-1.9761,-1.9717,-1.976,-1.9771,-1.9782,-1.9795,-1.9495,-1.9774,-1.9773,-1.9772,-1.9772,-1.9771,0,-1.9165,-1.9189,-1.9268,-1.9343,-1.941,-1.9363,-1.9418,-1.9478,-1.957,-1.9615,-1.9683,-1.9789,-1.9872,-1.9891,-1.997,-2.0031,-2.0014,-2.0053,-2.0049,-2.0055,-1.9829,-1.9796,-2.0065,-2.0065,-2.0065,-2.0065,-2.0065,-2.0065,-1.9322,-1.9454,-1.9452,-1.9602,-1.9625,-1.9727,-1.9763,-1.9808,-1.9844,-1.9964,-2.0033,-2.0044,-2.0078,-2.0159,-2.0233,-2.0236,-2.0268,-2.0316,-2.0312,-2.0101,-2.0071,-2.0043,-2.0013,-2.0322,-2.0323,-2.0531,-2.0533,-2.0535]},{"header":{"parameterUnit":"m.s-1","parameterCategory":1,"la1":30.2991,"la2":30.254,"lo1":-89.0895,"lo2":-89.0444,"dy":0.0017,"dx":0.0017,"nx":28,"ny":28,"refTime":"2025-01-22T09:00:00:Z","depth":0,"parameterNumber":3,"parameterNumberName":"V-component_of_WINDS"},"data":[0,0,0,0,0,0,0,0,0,0,0,0,0,0,0,0,0,0,0,0,0,0,0,0,0,0,0,0,0,0,0,0,0,0,0,0,0,0,0,0,0,0,0,0,0,0,0,0,0,0,0,0,0,0,0,0,0,0,-6.0591,-6.0593,0,-6.0766,-6.0768,-6.077,-6.0698,-6.0694,-6.069,-6.0686,-6.0859,-6.0867,-6.0875,0,0,0,0,0,0,0,0,0,0,0,0,0,-6.0186,-6.0193,-6.0591,-6.0593,-6.0595,-6.0766,-6.0768,-6.0771,-6.0699,-6.0694,-6.0689,-6.0684,-6.0856,-6.0866,-6.0876,0,0,0,0,0,0,0,0,0,0,0,0,0,-6.0361,-6.0196,-6.059,-6.058,-6.0581,-6.0765,-6.0768,-6.0771,-6.07,-6.0694,-6.0688,-6.0682,-6.0853,-6.0865,-6.0878,-6.108,0,0,-6.0916,-6.0922,0,0,0,0,0,0,0,0,-6.0351,-6.0376,-6.0579,-6.0581,-6.0582,-6.0704,-6.0689,-6.0875,-6.0702,-6.0655,-6.0686,-6.0679,-6.0812,-6.0828,-6.0874,-6.1088,-6.1096,-6.0917,-6.0925,-6.0931,-6.0934,0,0,0,0,0,0,0,-6.0339,-6.0368,-6.066,-6.0582,-6.0584,-6.0564,-6.0582,-6.0723,-6.0766,-6.0658,-6.0654,-6.0676,-6.0811,-6.0862,-6.0877,-6.1098,-6.0917,-6.0928,-6.0936,-6.0941,-6.1484,-6.149,0,0,0,0,0,0,-6.0328,-6.0358,-6.0654,-6.0665,-6.0449,-6.0576,-6.0597,-6.0671,-6.0764,-6.0772,-6.0681,-6.0672,-6.0843,-6.0863,-6.0883,-6.1125,-6.0931,-6.0942,-6.095,-6.1477,-6.1485,-6.1493,0,0,0,0,0,0,-6.0319,-6.0355,-6.0647,-6.0511,-6.0546,-6.059,-6.0674,-6.0678,-6.0728,-6.0781,-6.0787,-6.0725,-6.0839,-6.0865,-6.1031,-6.113,-6.0948,-6.096,-6.1469,-6.148,-6.1489,-6.1611,0,0,0,0,0,0,-6.0308,-6.0352,-6.0432,-6.0513,-6.0554,-6.0796,-6.0681,-6.0686,-6.0751,-6.0741,-6.0824,-6.0832,-6.0836,-6.1013,-6.1044,-6.1144,-6.097,-6.1461,-6.1474,-6.1486,-6.1598,-6.1624,-6.1646,0,0,0,0,0,-6.0294,-6.0459,-6.0437,-6.0473,-6.0655,-6.0802,-6.0825,-6.0828,-6.076,-6.0838,-6.0872,-6.0829,-6.1114,-6.1031,-6.1065,-6.117,-6.1454,-6.147,-6.1485,-6.1587,-6.1619,-6.1645,0,0,0,0,0,0,-6.0386,-6.0469,-6.0446,-6.0642,-6.0716,-6.0789,-6.0889,-6.0861,-6.0954,-6.0941,-6.0938,-6.0958,-6.1129,-6.1166,-6.1072,-6.1369,-6.1273,-6.1296,-6.1339,-6.137,-6.1393,-6.138,-6.098,0,0,0,0,0,-6.043,-6.0545,-6.0609,-6.0776,-6.0814,-6.0846,-6.091,-6.0906,-6.0981,-6.1011,-6.1057,-6.1129,-6.1234,-6.1304,-6.1404,-6.1603,-6.1618,-6.1692,-6.1715,-6.1735,-6.1754,-6.1859,-6.1892,-6.1543,-6.1543,-6.1543,0,0,-6.052,-6.058,-6.0652,-6.0796,-6.0853,-6.0969,-6.0872,-6.1,-6.1085,-6.103,-6.119,-6.1226,-6.1306,-6.1489,-6.1571,-6.1525,-6.1854,-6.1754,-6.1769,-6.1779,-6.1879,-6.1911,-6.1941,-6.1554,-6.1552,-6.155,0,0,-6.0744,-6.0802,-6.0946,-6.1005,-6.1092,-6.1111,-6.1146,-6.1224,-6.1246,-6.1407,-6.1367,-6.1467,-6.1649,-6.1708,-6.1761,-6.2005,-6.1968,-6.2037,-6.2161,-6.2264,-6.2291,-6.2316,-6.2401,-6.2431,-6.2056,-6.2057,-6.2057,0,-6.0845,-6.1022,-6.1023,-6.1154,-6.1217,-6.1174,-6.1318,-6.1374,-6.1489,-6.1532,-6.1478,-6.1705,-6.1756,-6.1951,-6.201,-6.2055,-6.2092,-6.2028,-6.2288,-6.2312,-6.2335,-6.2416,-6.2448,-6.2064,-6.2063,-6.2063,-6.2062,0,-6.114,-6.1262,-6.1368,-6.1481,-6.1556,-6.1693,-6.1712,-6.1788,-6.1776,-6.18,-6.1962,-6.2022,-6.2133,-6.2178,-6.2168,-6.2371,-6.2339,-6.2287,-6.219,-6.2376,-6.2452,-6.2483,-6.2075,-6.2073,-6.207,-6.2068,0,0,-6.1429,-6.1541,-6.1579,-6.1629,-6.1721,-6.1814,-6.1947,-6.2057,-6.212,-6.2199,-6.2309,-6.2463,-6.2415,-6.2476,-6.2471,-6.2562,-6.2748,-6.2498,-6.2499,-6.2541,-6.2972,-6.301,-6.3046,-6.2724,-6.273,-6.2735,-6.2965,0,-6.1659,-6.1895,-6.1899,-6.2115,-6.2226,-6.2185,-6.23,-6.2367,-6.2393,-6.2488,-6.2514,-6.2624,-6.2553,-6.2588,-6.2676,-6.2707,-6.2834,-6.269,-6.2824,-6.2828,-6.2805,-6.3086,-6.3128,-6.3342,-6.2995,-6.3,-6.3003,0,-6.196,-6.205,-6.2278,-6.2351,-6.2398,-6.2502,-6.2601,-6.2694,-6.2768,-6.2779,-6.2847,-6.2828,-6.296,-6.286,-6.304,-6.2942,-6.2996,-6.3019,-6.3028,-6.304,-6.2927,-6.3105,-6.3411,-6.3442,-6.305,-6.3047,-6.3043,0,-6.2146,-6.2324,-6.2483,-6.2527,-6.2617,-6.2691,-6.2731,-6.2799,-6.2864,-6.295,-6.2991,-6.309,-6.3145,-6.3221,-6.3228,-6.3155,-6.3409,-6.3309,-6.342,-6.342,-6.3475,-6.3472,-6.3793,-6.3512,-6.3511,-6.3511,-6.351,0,-6.2402,-6.2542,-6.2567,-6.2665,-6.2819,-6.2821,-6.2973,-6.3006,-6.3067,-6.3168,-6.3137,-6.3232,-6.3237,-6.3333,-6.3339,-6.3486,-6.3511,-6.3522,-6.3522,-6.3525,-6.3523,-6.356,-6.3545,-6.3519,-6.3517,-6.3516,-6.3514,0,-6.2636,-6.2659,-6.2828,-6.29,-6.2921,-6.3031,-6.3091,-6.3182,-6.3204,-6.3331,-6.3361,-6.3395,-6.3506,-6.3521,-6.3651,-6.3655,-6.3831,-6.3816,-6.3807,-6.3804,-6.3914,-6.3903,-6.4269,-6.4317,-6.4006,-6.4009,-6.4011,0,-6.2798,-6.2905,-6.2988,-6.3054,-6.3099,-6.3206,-6.3272,-6.3277,-6.3346,-6.3437,-6.3516,-6.3625,-6.3712,-6.3891,-6.3925,-6.4024,-6.401,-6.4131,-6.4024,-6.4023,-6.401,-6.4003,-6.4013,-6.4152,-6.4155,-6.4158,-6.416,0,-6.3082,-6.3088,-6.3185,-6.3287,-6.3367,-6.3446,-6.3521,-6.3576,-6.3589,-6.3668,-6.3783,-6.3851,-6.3983,-6.409,-6.4187,-6.4225,-6.4195,-6.4194,-6.4224,-6.4228,-6.4218,-6.4223,-6.3862,-6.4185,-6.4183,-6.4181,-6.4179,-6.4178,-6.3284,-6.3376,-6.3449,-6.3558,-6.3614,-6.3684,-6.3773,-6.3806,-6.3902,-6.4012,-6.4008,-6.4133,-6.42,-6.4328,-6.4373,-6.4468,-6.4428,-6.4473,-6.4484,-6.4495,-6.4505,-6.4203,-6.4486,-6.4485,-6.4485,-6.4484,-6.4484,0,-6.3565,-6.361,-6.371,-6.3816,-6.3901,-6.3866,-6.3946,-6.4018,-6.413,-6.4197,-6.4283,-6.4413,-6.4516,-6.4558,-6.4658,-6.4727,-6.4715,-6.4753,-6.4747,-6.4756,-6.4536,-6.4499,-6.476,-6.476,-6.476,-6.476,-6.476,-6.476,-6.3722,-6.3876,-6.3889,-6.4069,-6.4111,-6.4236,-6.4284,-6.4347,-6.44,-6.4547,-6.4634,-6.4661,-6.4716,-6.482,-6.4912,-6.4921,-6.4959,-6.5003,-6.5006,-6.48,-6.4772,-6.4745,-6.471,-6.5012,-6.5012,-6.5218,-6.522,-6.5221]}]]